IRIDIUM 33 DEB, 40996

Orbit data source: Space-Track

IRIDIUM 33 DEB, 40996 is space debris in LEO originally from a launch on Sun, 14 Sep 1997 UTC launched from the Tyuratam Missile And Space Complex (TTMTR). The debris from Iridium 33, an American commercial communications satellite, has been tracked extensively since its accidental collision with the defunct Russian satellite Cosmos 2251 in 2009. This event, occurring at high speed in low Earth orbit (LEO), generated thousands of pieces of space debris, significantly increasing the risk of further collisions. The Iridium 33 debris cloud has impacted space traffic management and orbital debris mitigation strategies, making it a subject of ongoing study in space situational awareness.

Loading next visibility...
Identifier
40996, 1997-051ABJ
Orbit
LEO
Country
Flag of USUS
Related business
Manufacturer
Unknown
Mission
Spacecraft
Bus & Motor
Unknown
Mass
Unknown
Launch date (UTC)
1997-09-14 (28 years ago)
Launch vehicle
Unknown
Launch site
Tyuratam Missile And Space Complex (TTMTR)
Object type
Payload
Rocket body
Debris
Shape & HBR
Unknown shape, 0.1 m
Radar Cross Section
Small (<0.1 m²)

Expand to show TLE details & history
Last TLE update: 1 week ago

TLE from 1 week ago
0 IRIDIUM 33 DEB
1 40996U 97051ABJ 25298.50634045  .00039685  00000-0  38739-2 0  9996
2 40996  86.3547  23.8605 0010943 218.5073 158.7698 14.92188399617686
Epoch: 2025-10-25T12:09Z
TLE epoch observation values (Epoch: 2025-10-25T12:09:07.814Z)
Latitude
17.27235°
Longitude
168.57091°
Altitude
600.745 km
Speed
7.557 km/s
True Right ascension
01h 39m 57s
True Declination
17° 10' 22"
Sunlit
Object was in full shadow at epoch
Visualization orbit readout
Latitude
Unknown
Longitude
Unknown
Altitude
Unknown
Speed
Unknown
Apparent Right ascension
Unknown
Apparent Declination
Unknown
Sunlit
N/A
Visualization observer readout
Local Sidereal Time
03:02:55
Azimuth
Unknown
Elevation
Unknown
Doppler factor
Unknown
Orbital elements
Apogee altitude
595.62 km
Perigee altitude
580.374 km
Semi-major axis
6,966.134 km
Eccentricity
0.00109
Inclination
86.3547°
RAAN
23.8605°
Arg. of periapsis
218.5073°
True anomaly
158.81515°
Mean anomaly
158.7698°
Eccentric anomaly
158.79248°
Mean motion
3.73298 °/min
Orbital period
96.44 mins
BSTAR
0.0038739
Loading maneuver chart data...
Computing Atmospheric mass density...

Documentation

Showing up to 5 results
|